Location: Alphen
(52.1351°N, 4.6549°E)
Time: 01:01:29
(UTC+00:00)

Lacrosse 4 Rocket - Pass Details

Date: 27 January 2021
Orbit: 536 x 621 km, 68.0° (Epoch: 27 February)

Event Time Altitude Azimuth Distance (km) Brightness Sun altitude
Exits shadow 04:04:24 22° 122° (ESE) 1,296 3.6 -31.2°
Maximum altitude 04:04:56 23° 110° (ESE) 1,280 3.7 -31.1°
Drops below altitude 10° 04:08:20 10° 59° (ENE) 1,943 4.9 -30.6°
Sets 04:10:59 0° 45° (NE) 2,866 5.7 -30.2°
